Location: El Gallo
(32.4380°N, 116.9347°W)
Time: 19:31:03
(UTC+00:00)

Cosmos 1869 Rocket - Pass Details

Date: 01 October 2022
Orbit: 603 x 633 km, 82.5° (Epoch: 02 December)

Event Time Altitude Azimuth Distance (km) Brightness Sun altitude
Rises 13:01:03 0° 350° (N) 2,913 6.9 -9.4°
Reaches altitude 10° 13:03:18 10° 347° (NNW) 1,998 6.1 -9.0°
Maximum altitude 13:07:41 65° 266° (W) 680 3.5 -8.0°
Drops below altitude 10° 13:12:00 10° 184° (S) 1,966 6.1 -7.1°
Sets 13:14:13 0° 182° (S) 2,862 7.0 -6.7°
